Zurück zum Katalog

RASSVET-3 27

AktivPO
NORAD 100093·PAYLOAD·🇷🇺 Russia

Gestartet Jul 19, 2026 von Plesetsk Cosmodrome

Loading…

Nächste Überflüge (nächste 24 Stunden)

TLE

AktuellSource: Space-Track

Epoche: Sep 14, 2026, 06:08 UTC

1 A0093U 26165L   26257.25558782 -.00200287  00000-0 -28481-2 0  9992
2 A0093  82.3003 168.1906 0009114 172.1469 187.9930 15.56979772  8896

Verfolge RASSVET-3 27 in Echtzeit mit AllMySat

Download on the App Store